HJ3GNC-13 Weather Reports


time (UTC)temp
C
wind
direction
speed
KPH
gust
KPH
rain 1hr
cm
rain 24hr
cm
rain mn
cm
humidity
%
barometer
mb
20260504224637 15 114 0.0 0.0 0.00 0.00 0.00 73 1015.0
20260504205630 17 119 0.0 0.0 0.00 0.00 0.00 68 1014.0
20260504204036 17 119 0.0 0.0 0.00 0.00 0.00 68 1014.0
20260504202451 17 240 0.0 0.0 0.00 0.00 0.00 68 1014.0
20260504200839 17 240 0.0 0.0 0.00 0.00 0.00 68 1014.0
20260504195255 17 240 0.0 0.0 0.00 0.00 0.00 68 1014.0
20260504193713 18 120 0.0 0.0 0.00 0.00 0.00 66 1014.0
20260504192132 18 0 0.0 0.0 0.00 0.00 0.00 68 1014.0
20260504190543 18 0 0.0 0.0 0.00 0.00 0.00 67 1014.0
20260504185002 18 150 0.0 0.0 0.00 0.00 0.00 66 1014.0
20260504181836 18 150 0.0 0.0 0.00 0.00 0.00 67 1015.0
20260504180254 18 120 0.0 0.0 0.00 0.00 0.00 68 1015.0
20260504174711 18 120 0.0 0.0 0.00 0.00 0.00 70 1015.0
20260504173126 18 120 0.0 0.0 0.00 0.00 0.00 72 1015.0
20260504171544 18 120 0.0 0.0 0.00 0.00 0.00 76 1016.0
20260504141210 13 0 0.0 0.0 0.00 0.00 0.00 99 1017.0
20260504100436 12 0 0.0 0.0 0.00 0.00 0.00 99 1018.0
20260504081325 12 20 0.0 0.0 0.00 0.00 0.00 99 1018.0
20260504035852 12 340 0.0 0.0 0.00 0.00 0.00 99 1020.0
20260504034257 13 340 0.0 0.0 0.00 0.00 0.00 98 1020.0
20260504032707 13 340 0.0 0.0 0.00 0.00 0.00 98 1020.0
20260504031122 13 340 0.0 0.0 0.00 0.00 0.00 98 1020.0
20260504025521 13 0 0.0 0.0 0.00 0.00 0.00 98 1020.0
20260504023858 13 0 0.0 0.0 0.00 0.00 0.00 98 1019.0
20260504022305 13 0 0.0 0.0 0.00 0.00 0.00 98 1019.0
20260504020705 13 0 0.0 0.0 0.00 0.00 0.00 98 1019.0
20260504015114 14 0 0.0 0.0 0.00 0.00 0.00 95 1019.0
20260504013508 14 0 0.0 0.0 0.00 0.00 0.00 95 1019.0
20260504011856 14 0 0.0 0.0 0.00 0.00 0.00 94 1018.0
20260503225120 15 139 0.0 0.0 0.00 0.00 0.00 77 1015.0